Dewpoint
37 38 38 37 35 34 33 33 34 35 35 35 36 36 35 34 35 35 35 35 39 39
36 36 36 35 34 33 33 34 34 34 34 34 35 34 34 33 33 35 35 35 35 38
35 34 35 35 34 32 33 32 33 33 33 33 33 33 32 31 32 32 32 35 34 35
35 34 35 35 36 33 34 33 33 33 33 31 31 31 30 30 31 32 32 33 34 35
35 35 35 36 35 34 35 33 33 33 32 31 32 31 30 29 31 31 32 33 32 31
36 36 35 35 35 36 35 35 34 33 31 31 32 32 32 30 30 30 31 31 31 32
37 37 34 35 37 36 36 36 35 32 32 32 32 33 33 33 31 30 31 31 31 33
37 35 36 37 36 37 34 35 33 33 32 31 32 35 32 32 32 30 30 31 31 32
37 37 36 37 37 35 34 33 34 34 33 32 34 34 35 34 29 33 33 31 31 32
37 38 38 38 36 34 34 33 35 33 33 33 34 34 34 34 31 32 32 32 33 33
36 37 38 37 35 34 34 32 33 34 34 33 33 34 32 34 32 32 33 33 33 34
37 37 37 37 35 35 34 32 33 32 32 31 29 34 34 33 31 32 32 34 34 33
38 38 37 36 37 36 33 32 32 31 32 33 34 35 35 34 32 32 32 33 34 33
37 37 38 36 37 36 33 31 30 31 32 31 33 32 34 35 34 32 32 32 32 32
Lifted_Index
11 12 14 14 15 15 15 16 16 17 16 16 15 15 15 16 15 15 14 14 12 12
11 13 14 14 15 15 15 15 16 16 16 16 15 15 15 16 15 15 14 13 12 11
12 13 14 14 14 14 14 15 15 15 16 16 16 16 16 15 14 13 13 12 11 11
12 12 13 13 13 14 14 14 15 15 15 16 16 16 15 14 13 12 11 11 11 11
11 12 12 13 13 13 14 14 14 15 15 16 15 15 13 12 12 11 11 10 10 10
11 11 12 12 13 13 14 14 14 14 15 15 14 13 12 11 11 11 10 10 10 10
11 11 12 12 13 14 14 14 14 14 14 13 12 11 11 10 10 10 10 9 9 9
11 11 12 13 13 14 14 14 14 14 13 12 11 11 10 10 10 10 10 9 9 8
11 11 12 13 13 14 14 14 14 13 12 11 11 10 10 10 10 10 9 9 8 8
11 11 12 13 13 13 14 14 14 13 12 11 11 11 10 10 10 9 9 8 8 8
11 12 12 12 13 13 14 14 14 13 12 11 11 10 10 10 9 9 8 8 8 7
11 12 12 12 12 13 13 13 13 12 12 11 10 10 10 10 9 8 8 7 7 7
11 11 11 12 12 12 13 13 13 12 11 11 10 10 9 9 9 8 8 7 7 7
11 11 11 11 11 12 12 13 12 12 11 11 10 10 9 9 8 8 7 7 7 7